owner,sensor,date,latitude,longitude,air_temperature,qcFlag 
ADCP,ioos:station:wmo:42370:1,2012-10-01T00:00:00Z,27.3220,-90.5360,25.9,11111222 
ADCP,ioos:station:wmo:42370:1,2012-10-01T00:20:00Z,27.3220,-90.5360,25.0,11111222 
ADCP,ioos:station:wmo:42370:1,2012-10-01T00:40:00Z,27.3220,-90.5360,25.6,11111222 
ADCP,ioos:station:wmo:42370:1,2012-10-01T01:00:00Z,27.3220,-90.5360,27.0,11111222 
ADCP,ioos:station:wmo:42370:1,2012-10-01T01:20:00Z,27.3220,-90.5360,27.6,11111222 
ADCP,ioos:station:wmo:42370:1,2012-10-01T01:40:00Z,27.3220,-90.5360,27.6,11111222 
ADCP,ioos:station:wmo:42370:1,2012-10-01T02:00:00Z,27.3220,-90.5360,27.8,11111222 
ADCP,ioos:station:wmo:42370:1,2012-10-01T02:20:00Z,27.3220,-90.5360,27.8,11111222 
ADCP,ioos:station:wmo:42370:1,2012-10-01T02:40:00Z,27.3220,-90.5360,27.5,11111222 
ADCP,ioos:station:wmo:42370:1,2012-10-01T03:00:00Z,27.3220,-90.5360,27.6,11111222 
ADCP,ioos:station:wmo:42370:1,2012-10-01T03:20:00Z,27.3220,-90.5360,27.5,11111222 
ADCP,ioos:station:wmo:42370:1,2012-10-01T03:40:00Z,27.3220,-90.5360,27.5,11111222 
ADCP,ioos:station:wmo:42370:1,2012-10-01T04:00:00Z,27.3220,-90.5360,27.4,11111222 
ADCP,ioos:station:wmo:42370:1,2012-10-01T04:20:00Z,27.3220,-90.5360,27.3,11111222 
ADCP,ioos:station:wmo:42370:1,2012-10-01T04:40:00Z,27.3220,-90.5360,27.3,11111222 
ADCP,ioos:station:wmo:42370:1,2012-10-01T05:00:00Z,27.3220,-90.5360,27.2,11111222 
ADCP,ioos:station:wmo:42370:1,2012-10-01T05:20:00Z,27.3220,-90.5360,27.1,11111222 
ADCP,ioos:station:wmo:42370:1,2012-10-01T05:40:00Z,27.3220,-90.5360,27.1,11111222 
ADCP,ioos:station:wmo:42370:1,2012-10-01T06:00:00Z,27.3220,-90.5360,27.1,11111222 
ADCP,ioos:station:wmo:42370:1,2012-10-01T06:20:00Z,27.3220,-90.5360,27.1,11111222 
ADCP,ioos:station:wmo:42370:1,2012-10-01T06:40:00Z,27.3220,-90.5360,27.0,11111222 
ADCP,ioos:station:wmo:42370:1,2012-10-01T07:00:00Z,27.3220,-90.5360,26.4,11111222 
ADCP,ioos:station:wmo:42370:1,2012-10-01T07:20:00Z,27.3220,-90.5360,26.5,11111222 
ADCP,ioos:station:wmo:42370:1,2012-10-01T07:40:00Z,27.3220,-90.5360,26.7,11111222 
ADCP,ioos:station:wmo:42370:1,2012-10-01T08:00:00Z,27.3220,-90.5360,26.8,11111222 
ADCP,ioos:station:wmo:42370:1,2012-10-01T08:20:00Z,27.3220,-90.5360,26.8,11111222 
ADCP,ioos:station:wmo:42370:1,2012-10-01T08:40:00Z,27.3220,-90.5360,26.5,11111222 
ADCP,ioos:station:wmo:42370:1,2012-10-01T09:00:00Z,27.3220,-90.5360,26.4,11111222 
ADCP,ioos:station:wmo:42370:1,2012-10-01T09:20:00Z,27.3220,-90.5360,26.4,11111222 
ADCP,ioos:station:wmo:42370:1,2012-10-01T09:40:00Z,27.3220,-90.5360,26.5,11111222 
ADCP,ioos:station:wmo:42370:1,2012-10-01T10:00:00Z,27.3220,-90.5360,26.5,11111222 
ADCP,ioos:station:wmo:42370:1,2012-10-01T10:20:00Z,27.3220,-90.5360,26.5,11111222 
ADCP,ioos:station:wmo:42370:1,2012-10-01T10:40:00Z,27.3220,-90.5360,26.3,11111222 
ADCP,ioos:station:wmo:42370:1,2012-10-01T11:00:00Z,27.3220,-90.5360,26.4,11111222 
ADCP,ioos:station:wmo:42370:1,2012-10-01T11:20:00Z,27.3220,-90.5360,26.4,11111222 
ADCP,ioos:station:wmo:42370:1,2012-10-01T11:40:00Z,27.3220,-90.5360,25.9,11111222 
ADCP,ioos:station:wmo:42370:1,2012-10-01T12:00:00Z,27.3220,-90.5360,25.9,11111222 
ADCP,ioos:station:wmo:42370:1,2012-10-01T12:20:00Z,27.3220,-90.5360,25.9,11111222 
ADCP,ioos:station:wmo:42370:1,2012-10-01T12:40:00Z,27.3220,-90.5360,26.0,11111222 
ADCP,ioos:station:wmo:42370:1,2012-10-01T13:00:00Z,27.3220,-90.5360,26.1,11111222 
ADCP,ioos:station:wmo:42370:1,2012-10-01T13:20:00Z,27.3220,-90.5360,26.1,11111222 
ADCP,ioos:station:wmo:42370:1,2012-10-01T13:40:00Z,27.3220,-90.5360,26.3,11111222 
ADCP,ioos:station:wmo:42370:1,2012-10-01T14:00:00Z,27.3220,-90.5360,26.3,11111222 
ADCP,ioos:station:wmo:42370:1,2012-10-01T14:20:00Z,27.3220,-90.5360,26.3,11111222 
ADCP,ioos:station:wmo:42370:1,2012-10-01T14:40:00Z,27.3220,-90.5360,25.4,11111222 
ADCP,ioos:station:wmo:42370:1,2012-10-01T15:00:00Z,27.3220,-90.5360,24.9,11111222 
ADCP,ioos:station:wmo:42370:1,2012-10-01T15:20:00Z,27.3220,-90.5360,24.9,11111222 
ADCP,ioos:station:wmo:42370:1,2012-10-01T15:40:00Z,27.3220,-90.5360,25.4,11111222 
ADCP,ioos:station:wmo:42370:1,2012-10-01T16:00:00Z,27.3220,-90.5360,25.5,11111222 
ADCP,ioos:station:wmo:42370:1,2012-10-01T16:20:00Z,27.3220,-90.5360,25.5,11111222 
ADCP,ioos:station:wmo:42370:1,2012-10-01T16:40:00Z,27.3220,-90.5360,25.2,11111222 
ADCP,ioos:station:wmo:42370:1,2012-10-01T17:00:00Z,27.3220,-90.5360,25.3,11111222 
ADCP,ioos:station:wmo:42370:1,2012-10-01T17:20:00Z,27.3220,-90.5360,25.4,11111222 
ADCP,ioos:station:wmo:42370:1,2012-10-01T17:40:00Z,27.3220,-90.5360,25.4,11111222 
ADCP,ioos:station:wmo:42370:1,2012-10-01T18:00:00Z,27.3220,-90.5360,25.5,11111222 
ADCP,ioos:station:wmo:42370:1,2012-10-01T18:20:00Z,27.3220,-90.5360,25.8,11111222 
ADCP,ioos:station:wmo:42370:1,2012-10-01T18:40:00Z,27.3220,-90.5360,25.5,11111222 
ADCP,ioos:station:wmo:42370:1,2012-10-01T19:00:00Z,27.3220,-90.5360,25.3,11111222 
ADCP,ioos:station:wmo:42370:1,2012-10-01T19:20:00Z,27.3220,-90.5360,25.1,11111222 
ADCP,ioos:station:wmo:42370:1,2012-10-01T19:40:00Z,27.3220,-90.5360,25.3,11111222 
ADCP,ioos:station:wmo:42370:1,2012-10-01T20:00:00Z,27.3220,-90.5360,25.1,11111222 
ADCP,ioos:station:wmo:42370:1,2012-10-01T20:20:00Z,27.3220,-90.5360,25.0,11111222 
ADCP,ioos:station:wmo:42370:1,2012-10-01T20:40:00Z,27.3220,-90.5360,25.0,11111222 
ADCP,ioos:station:wmo:42370:1,2012-10-01T21:00:00Z,27.3220,-90.5360,24.9,11111222 
ADCP,ioos:station:wmo:42370:1,2012-10-01T21:20:00Z,27.3220,-90.5360,24.9,11111222 
ADCP,ioos:station:wmo:42370:1,2012-10-01T21:40:00Z,27.3220,-90.5360,24.7,11111222 
ADCP,ioos:station:wmo:42370:1,2012-10-01T22:00:00Z,27.3220,-90.5360,24.5,11111222 
ADCP,ioos:station:wmo:42370:1,2012-10-01T22:20:00Z,27.3220,-90.5360,24.4,11111222 
ADCP,ioos:station:wmo:42370:1,2012-10-01T22:40:00Z,27.3220,-90.5360,24.3,11111222 
ADCP,ioos:station:wmo:42370:1,2012-10-01T23:00:00Z,27.3220,-90.5360,24.3,11111222 
ADCP,ioos:station:wmo:42370:1,2012-10-01T23:20:00Z,27.3220,-90.5360,24.3,11111222 
ADCP,ioos:station:wmo:42370:1,2012-10-01T23:40:00Z,27.3220,-90.5360,24.4,11111222 
ADCP,ioos:station:wmo:42370:1,2012-10-02T00:00:00Z,27.3220,-90.5360,24.5,11111222 
ADCP,ioos:station:wmo:42370:1,2012-10-02T00:20:00Z,27.3220,-90.5360,24.6,11111222 
ADCP,ioos:station:wmo:42370:1,2012-10-02T00:40:00Z,27.3220,-90.5360,24.4,11111222 
ADCP,ioos:station:wmo:42370:1,2012-10-02T01:00:00Z,27.3220,-90.5360,24.3,11111222 
ADCP,ioos:station:wmo:42370:1,2012-10-02T01:20:00Z,27.3220,-90.5360,24.3,11111222 
ADCP,ioos:station:wmo:42370:1,2012-10-02T01:40:00Z,27.3220,-90.5360,24.9,11111222 
ADCP,ioos:station:wmo:42370:1,2012-10-02T02:00:00Z,27.3220,-90.5360,25.0,11111222 
ADCP,ioos:station:wmo:42370:1,2012-10-02T02:20:00Z,27.3220,-90.5360,25.0,11111222 
ADCP,ioos:station:wmo:42370:1,2012-10-02T02:40:00Z,27.3220,-90.5360,25.1,11111222 
ADCP,ioos:station:wmo:42370:1,2012-10-02T03:00:00Z,27.3220,-90.5360,25.1,11111222 
ADCP,ioos:station:wmo:42370:1,2012-10-02T03:20:00Z,27.3220,-90.5360,25.2,11111222 
ADCP,ioos:station:wmo:42370:1,2012-10-02T03:40:00Z,27.3220,-90.5360,25.4,11111222 
ADCP,ioos:station:wmo:42370:1,2012-10-02T04:00:00Z,27.3220,-90.5360,25.5,11111222 
ADCP,ioos:station:wmo:42370:1,2012-10-02T04:20:00Z,27.3220,-90.5360,25.6,11111222 
ADCP,ioos:station:wmo:42370:1,2012-10-02T04:40:00Z,27.3220,-90.5360,25.6,11111222 
ADCP,ioos:station:wmo:42370:1,2012-10-02T05:00:00Z,27.3220,-90.5360,25.7,11111222 
ADCP,ioos:station:wmo:42370:1,2012-10-02T05:20:00Z,27.3220,-90.5360,25.8,11111222 
ADCP,ioos:station:wmo:42370:1,2012-10-02T05:40:00Z,27.3220,-90.5360,25.9,11111222 
ADCP,ioos:station:wmo:42370:1,2012-10-02T06:00:00Z,27.3220,-90.5360,26.1,11111222 
ADCP,ioos:station:wmo:42370:1,2012-10-02T06:20:00Z,27.3220,-90.5360,26.2,11111222 
ADCP,ioos:station:wmo:42370:1,2012-10-02T06:40:00Z,27.3220,-90.5360,26.2,11111222 
ADCP,ioos:station:wmo:42370:1,2012-10-02T07:00:00Z,27.3220,-90.5360,26.3,11111222 
ADCP,ioos:station:wmo:42370:1,2012-10-02T07:20:00Z,27.3220,-90.5360,26.2,11111222 
ADCP,ioos:station:wmo:42370:1,2012-10-02T07:40:00Z,27.3220,-90.5360,26.1,11111222 
ADCP,ioos:station:wmo:42370:1,2012-10-02T08:00:00Z,27.3220,-90.5360,26.2,11111222 
ADCP,ioos:station:wmo:42370:1,2012-10-02T08:20:00Z,27.3220,-90.5360,26.1,11111222 
ADCP,ioos:station:wmo:42370:1,2012-10-02T08:40:00Z,27.3220,-90.5360,26.0,11111222 
ADCP,ioos:station:wmo:42370:1,2012-10-02T09:00:00Z,27.3220,-90.5360,26.0,11111222 
ADCP,ioos:station:wmo:42370:1,2012-10-02T09:20:00Z,27.3220,-90.5360,25.8,11111222 
ADCP,ioos:station:wmo:42370:1,2012-10-02T09:40:00Z,27.3220,-90.5360,25.7,11111222 
ADCP,ioos:station:wmo:42370:1,2012-10-02T10:00:00Z,27.3220,-90.5360,25.6,11111222 
ADCP,ioos:station:wmo:42370:1,2012-10-02T10:20:00Z,27.3220,-90.5360,25.6,11111222 
ADCP,ioos:station:wmo:42370:1,2012-10-02T10:40:00Z,27.3220,-90.5360,25.5,11111222 
ADCP,ioos:station:wmo:42370:1,2012-10-02T11:00:00Z,27.3220,-90.5360,25.5,11111222 
ADCP,ioos:station:wmo:42370:1,2012-10-02T11:20:00Z,27.3220,-90.5360,25.6,11111222 
ADCP,ioos:station:wmo:42370:1,2012-10-02T11:40:00Z,27.3220,-90.5360,25.7,11111222 
ADCP,ioos:station:wmo:42370:1,2012-10-02T12:00:00Z,27.3220,-90.5360,25.8,11111222 
ADCP,ioos:station:wmo:42370:1,2012-10-02T12:20:00Z,27.3220,-90.5360,25.9,11111222 
ADCP,ioos:station:wmo:42370:1,2012-10-02T12:40:00Z,27.3220,-90.5360,26.3,11111222 
ADCP,ioos:station:wmo:42370:1,2012-10-02T13:00:00Z,27.3220,-90.5360,26.8,11111222 
ADCP,ioos:station:wmo:42370:1,2012-10-02T13:20:00Z,27.3220,-90.5360,27.1,11111222 
ADCP,ioos:station:wmo:42370:1,2012-10-02T13:40:00Z,27.3220,-90.5360,27.5,11111222 
ADCP,ioos:station:wmo:42370:1,2012-10-02T14:00:00Z,27.3220,-90.5360,28.1,11111222 
ADCP,ioos:station:wmo:42370:1,2012-10-02T14:20:00Z,27.3220,-90.5360,28.3,11111222 
ADCP,ioos:station:wmo:42370:1,2012-10-02T14:40:00Z,27.3220,-90.5360,28.4,11111222 
ADCP,ioos:station:wmo:42370:1,2012-10-02T15:00:00Z,27.3220,-90.5360,28.5,11111222 
ADCP,ioos:station:wmo:42370:1,2012-10-02T15:20:00Z,27.3220,-90.5360,28.4,11111222 
ADCP,ioos:station:wmo:42370:1,2012-10-02T15:40:00Z,27.3220,-90.5360,28.3,11111222 
ADCP,ioos:station:wmo:42370:1,2012-10-02T16:00:00Z,27.3220,-90.5360,28.2,11111222 
ADCP,ioos:station:wmo:42370:1,2012-10-02T16:20:00Z,27.3220,-90.5360,26.9,11111222 
ADCP,ioos:station:wmo:42370:1,2012-10-02T16:40:00Z,27.3220,-90.5360,27.4,11111222 
ADCP,ioos:station:wmo:42370:1,2012-10-02T17:00:00Z,27.3220,-90.5360,27.4,11111222 
ADCP,ioos:station:wmo:42370:1,2012-10-02T17:20:00Z,27.3220,-90.5360,27.5,11111222 
ADCP,ioos:station:wmo:42370:1,2012-10-02T17:40:00Z,27.3220,-90.5360,27.1,11111222 
ADCP,ioos:station:wmo:42370:1,2012-10-02T18:00:00Z,27.3220,-90.5360,27.7,11111222 
ADCP,ioos:station:wmo:42370:1,2012-10-02T18:20:00Z,27.3220,-90.5360,26.9,11111222 
ADCP,ioos:station:wmo:42370:1,2012-10-02T18:40:00Z,27.3220,-90.5360,26.3,11111222 
ADCP,ioos:station:wmo:42370:1,2012-10-02T19:00:00Z,27.3220,-90.5360,26.3,11111222 
ADCP,ioos:station:wmo:42370:1,2012-10-02T19:20:00Z,27.3220,-90.5360,26.0,11111222 
ADCP,ioos:station:wmo:42370:1,2012-10-02T19:40:00Z,27.3220,-90.5360,25.9,11111222 
ADCP,ioos:station:wmo:42370:1,2012-10-02T20:00:00Z,27.3220,-90.5360,25.8,11111222 
ADCP,ioos:station:wmo:42370:1,2012-10-02T20:20:00Z,27.3220,-90.5360,25.7,11111222 
ADCP,ioos:station:wmo:42370:1,2012-10-02T20:40:00Z,27.3220,-90.5360,25.8,11111222 
ADCP,ioos:station:wmo:42370:1,2012-10-02T21:00:00Z,27.3220,-90.5360,25.9,11111222 
ADCP,ioos:station:wmo:42370:1,2012-10-02T21:20:00Z,27.3220,-90.5360,25.9,11111222 
ADCP,ioos:station:wmo:42370:1,2012-10-02T21:40:00Z,27.3220,-90.5360,25.9,11111222 
ADCP,ioos:station:wmo:42370:1,2012-10-02T22:00:00Z,27.3220,-90.5360,26.0,11111222 
ADCP,ioos:station:wmo:42370:1,2012-10-02T22:20:00Z,27.3220,-90.5360,26.0,11111222 
ADCP,ioos:station:wmo:42370:1,2012-10-02T22:40:00Z,27.3220,-90.5360,25.9,11111222 
ADCP,ioos:station:wmo:42370:1,2012-10-02T23:00:00Z,27.3220,-90.5360,25.9,11111222 
ADCP,ioos:station:wmo:42370:1,2012-10-02T23:20:00Z,27.3220,-90.5360,25.8,11111222 
ADCP,ioos:station:wmo:42370:1,2012-10-02T23:40:00Z,27.3220,-90.5360,25.8,11111222 
ADCP,ioos:station:wmo:42370:1,2012-10-03T00:00:00Z,27.3220,-90.5360,25.9,11111222 
ADCP,ioos:station:wmo:42370:1,2012-10-03T00:20:00Z,27.3220,-90.5360,25.9,11111222 
ADCP,ioos:station:wmo:42370:1,2012-10-03T00:40:00Z,27.3220,-90.5360,26.0,11111222 
ADCP,ioos:station:wmo:42370:1,2012-10-03T01:00:00Z,27.3220,-90.5360,26.1,11111222 
ADCP,ioos:station:wmo:42370:1,2012-10-03T01:20:00Z,27.3220,-90.5360,25.3,11111222 
ADCP,ioos:station:wmo:42370:1,2012-10-03T01:40:00Z,27.3220,-90.5360,23.9,11111222 
ADCP,ioos:station:wmo:42370:1,2012-10-03T02:00:00Z,27.3220,-90.5360,24.3,11111222 
ADCP,ioos:station:wmo:42370:1,2012-10-03T02:20:00Z,27.3220,-90.5360,24.7,11111222 
ADCP,ioos:station:wmo:42370:1,2012-10-03T02:40:00Z,27.3220,-90.5360,25.1,11111222 
ADCP,ioos:station:wmo:42370:1,2012-10-03T03:00:00Z,27.3220,-90.5360,25.5,11111222 
ADCP,ioos:station:wmo:42370:1,2012-10-03T03:20:00Z,27.3220,-90.5360,25.8,11111222 
ADCP,ioos:station:wmo:42370:1,2012-10-03T03:40:00Z,27.3220,-90.5360,26.0,11111222 
ADCP,ioos:station:wmo:42370:1,2012-10-03T04:00:00Z,27.3220,-90.5360,26.1,11111222 
ADCP,ioos:station:wmo:42370:1,2012-10-03T04:20:00Z,27.3220,-90.5360,26.0,11111222 
ADCP,ioos:station:wmo:42370:1,2012-10-03T04:40:00Z,27.3220,-90.5360,26.0,11111222 
ADCP,ioos:station:wmo:42370:1,2012-10-03T05:00:00Z,27.3220,-90.5360,26.0,11111222 
ADCP,ioos:station:wmo:42370:1,2012-10-03T05:20:00Z,27.3220,-90.5360,26.0,11111222 
ADCP,ioos:station:wmo:42370:1,2012-10-03T05:40:00Z,27.3220,-90.5360,26.1,11111222 
ADCP,ioos:station:wmo:42370:1,2012-10-03T06:00:00Z,27.3220,-90.5360,26.1,11111222 
ADCP,ioos:station:wmo:42370:1,2012-10-03T06:20:00Z,27.3220,-90.5360,26.1,11111222 
ADCP,ioos:station:wmo:42370:1,2012-10-03T06:40:00Z,27.3220,-90.5360,26.3,11111222 
ADCP,ioos:station:wmo:42370:1,2012-10-03T07:00:00Z,27.3220,-90.5360,26.4,11111222 
ADCP,ioos:station:wmo:42370:1,2012-10-03T07:20:00Z,27.3220,-90.5360,26.4,11111222 
ADCP,ioos:station:wmo:42370:1,2012-10-03T07:40:00Z,27.3220,-90.5360,26.4,11111222 
ADCP,ioos:station:wmo:42370:1,2012-10-03T08:00:00Z,27.3220,-90.5360,26.3,11111222 
ADCP,ioos:station:wmo:42370:1,2012-10-03T08:20:00Z,27.3220,-90.5360,26.2,11111222 
ADCP,ioos:station:wmo:42370:1,2012-10-03T08:40:00Z,27.3220,-90.5360,26.2,11111222 
ADCP,ioos:station:wmo:42370:1,2012-10-03T09:00:00Z,27.3220,-90.5360,26.2,11111222 
ADCP,ioos:station:wmo:42370:1,2012-10-03T09:20:00Z,27.3220,-90.5360,26.2,11111222 
ADCP,ioos:station:wmo:42370:1,2012-10-03T09:40:00Z,27.3220,-90.5360,26.1,11111222 
ADCP,ioos:station:wmo:42370:1,2012-10-03T10:00:00Z,27.3220,-90.5360,26.2,11111222 
ADCP,ioos:station:wmo:42370:1,2012-10-03T10:20:00Z,27.3220,-90.5360,26.2,11111222 
ADCP,ioos:station:wmo:42370:1,2012-10-03T10:40:00Z,27.3220,-90.5360,26.2,11111222 
ADCP,ioos:station:wmo:42370:1,2012-10-03T11:00:00Z,27.3220,-90.5360,26.2,11111222 
ADCP,ioos:station:wmo:42370:1,2012-10-03T11:20:00Z,27.3220,-90.5360,26.2,11111222 
ADCP,ioos:station:wmo:42370:1,2012-10-03T11:40:00Z,27.3220,-90.5360,26.2,11111222 
ADCP,ioos:station:wmo:42370:1,2012-10-03T12:00:00Z,27.3220,-90.5360,26.2,11111222 
ADCP,ioos:station:wmo:42370:1,2012-10-03T12:20:00Z,27.3220,-90.5360,26.3,11111222 
ADCP,ioos:station:wmo:42370:1,2012-10-03T12:40:00Z,27.3220,-90.5360,26.4,11111222 
ADCP,ioos:station:wmo:42370:1,2012-10-03T13:00:00Z,27.3220,-90.5360,26.6,11111222 
ADCP,ioos:station:wmo:42370:1,2012-10-03T13:20:00Z,27.3220,-90.5360,25.8,11111222 
ADCP,ioos:station:wmo:42370:1,2012-10-03T13:40:00Z,27.3220,-90.5360,25.8,11111222 
ADCP,ioos:station:wmo:42370:1,2012-10-03T14:00:00Z,27.3220,-90.5360,25.3,11111222 
ADCP,ioos:station:wmo:42370:1,2012-10-03T14:20:00Z,27.3220,-90.5360,25.4,11111222 
ADCP,ioos:station:wmo:42370:1,2012-10-03T14:40:00Z,27.3220,-90.5360,23.0,11111222 
ADCP,ioos:station:wmo:42370:1,2012-10-03T15:00:00Z,27.3220,-90.5360,22.5,11111222 
ADCP,ioos:station:wmo:42370:1,2012-10-03T15:20:00Z,27.3220,-90.5360,23.3,11111222 
ADCP,ioos:station:wmo:42370:1,2012-10-03T15:40:00Z,27.3220,-90.5360,24.4,11111222 
ADCP,ioos:station:wmo:42370:1,2012-10-03T16:00:00Z,27.3220,-90.5360,24.9,11111222 
ADCP,ioos:station:wmo:42370:1,2012-10-03T16:20:00Z,27.3220,-90.5360,25.8,11111222 
ADCP,ioos:station:wmo:42370:1,2012-10-03T16:40:00Z,27.3220,-90.5360,26.1,11111222 
ADCP,ioos:station:wmo:42370:1,2012-10-03T17:00:00Z,27.3220,-90.5360,26.4,11111222 
ADCP,ioos:station:wmo:42370:1,2012-10-03T17:20:00Z,27.3220,-90.5360,26.5,11111222 
ADCP,ioos:station:wmo:42370:1,2012-10-03T17:40:00Z,27.3220,-90.5360,26.8,11111222 
ADCP,ioos:station:wmo:42370:1,2012-10-03T18:00:00Z,27.3220,-90.5360,27.0,11111222 
ADCP,ioos:station:wmo:42370:1,2012-10-03T18:20:00Z,27.3220,-90.5360,26.9,11111222 
ADCP,ioos:station:wmo:42370:1,2012-10-03T18:40:00Z,27.3220,-90.5360,26.8,11111222 
ADCP,ioos:station:wmo:42370:1,2012-10-03T19:00:00Z,27.3220,-90.5360,26.7,11111222 
ADCP,ioos:station:wmo:42370:1,2012-10-03T19:20:00Z,27.3220,-90.5360,27.2,11111222 
ADCP,ioos:station:wmo:42370:1,2012-10-03T19:40:00Z,27.3220,-90.5360,26.8,11111222 
ADCP,ioos:station:wmo:42370:1,2012-10-03T20:00:00Z,27.3220,-90.5360,26.9,11111222 
ADCP,ioos:station:wmo:42370:1,2012-10-03T20:20:00Z,27.3220,-90.5360,27.0,11111222 
ADCP,ioos:station:wmo:42370:1,2012-10-03T20:40:00Z,27.3220,-90.5360,26.8,11111222 
ADCP,ioos:station:wmo:42370:1,2012-10-03T21:00:00Z,27.3220,-90.5360,26.8,11111222 
ADCP,ioos:station:wmo:42370:1,2012-10-03T21:20:00Z,27.3220,-90.5360,26.9,11111222 
ADCP,ioos:station:wmo:42370:1,2012-10-03T21:40:00Z,27.3220,-90.5360,27.2,11111222 
ADCP,ioos:station:wmo:42370:1,2012-10-03T22:00:00Z,27.3220,-90.5360,27.7,11111222 
ADCP,ioos:station:wmo:42370:1,2012-10-03T22:20:00Z,27.3220,-90.5360,27.0,11111222 
ADCP,ioos:station:wmo:42370:1,2012-10-03T22:40:00Z,27.3220,-90.5360,27.5,11111222 
ADCP,ioos:station:wmo:42370:1,2012-10-03T23:00:00Z,27.3220,-90.5360,28.1,11111222 
ADCP,ioos:station:wmo:42370:1,2012-10-03T23:20:00Z,27.3220,-90.5360,28.0,11111222 
ADCP,ioos:station:wmo:42370:1,2012-10-03T23:40:00Z,27.3220,-90.5360,28.1,11111222 
ADCP,ioos:station:wmo:42370:1,2012-10-04T00:00:00Z,27.3220,-90.5360,27.5,11111222 
ADCP,ioos:station:wmo:42370:1,2012-10-04T00:20:00Z,27.3220,-90.5360,27.4,11111222 
ADCP,ioos:station:wmo:42370:1,2012-10-04T00:40:00Z,27.3220,-90.5360,27.1,11111222 
ADCP,ioos:station:wmo:42370:1,2012-10-04T01:00:00Z,27.3220,-90.5360,26.9,11111222 
ADCP,ioos:station:wmo:42370:1,2012-10-04T01:20:00Z,27.3220,-90.5360,27.1,11111222 
ADCP,ioos:station:wmo:42370:1,2012-10-04T01:40:00Z,27.3220,-90.5360,27.2,11111222 
ADCP,ioos:station:wmo:42370:1,2012-10-04T02:00:00Z,27.3220,-90.5360,27.2,11111222 
ADCP,ioos:station:wmo:42370:1,2012-10-04T02:20:00Z,27.3220,-90.5360,27.0,11111222 
ADCP,ioos:station:wmo:42370:1,2012-10-04T02:40:00Z,27.3220,-90.5360,26.9,11111222 
ADCP,ioos:station:wmo:42370:1,2012-10-04T03:00:00Z,27.3220,-90.5360,27.0,11111222 
ADCP,ioos:station:wmo:42370:1,2012-10-04T03:20:00Z,27.3220,-90.5360,27.0,11111222 
ADCP,ioos:station:wmo:42370:1,2012-10-04T03:40:00Z,27.3220,-90.5360,26.9,11111222 
ADCP,ioos:station:wmo:42370:1,2012-10-04T04:00:00Z,27.3220,-90.5360,26.9,11111222 
ADCP,ioos:station:wmo:42370:1,2012-10-04T04:20:00Z,27.3220,-90.5360,27.0,11111222 
ADCP,ioos:station:wmo:42370:1,2012-10-04T04:40:00Z,27.3220,-90.5360,26.8,11111222 
ADCP,ioos:station:wmo:42370:1,2012-10-04T05:00:00Z,27.3220,-90.5360,26.8,11111222 
ADCP,ioos:station:wmo:42370:1,2012-10-04T05:20:00Z,27.3220,-90.5360,26.8,11111222 
ADCP,ioos:station:wmo:42370:1,2012-10-04T05:40:00Z,27.3220,-90.5360,26.8,11111222 
ADCP,ioos:station:wmo:42370:1,2012-10-04T06:00:00Z,27.3220,-90.5360,26.6,11111222 
ADCP,ioos:station:wmo:42370:1,2012-10-04T06:20:00Z,27.3220,-90.5360,26.6,11111222 
ADCP,ioos:station:wmo:42370:1,2012-10-04T06:40:00Z,27.3220,-90.5360,26.6,11111222 
ADCP,ioos:station:wmo:42370:1,2012-10-04T07:00:00Z,27.3220,-90.5360,26.6,11111222 
ADCP,ioos:station:wmo:42370:1,2012-10-04T07:20:00Z,27.3220,-90.5360,26.5,11111222 
ADCP,ioos:station:wmo:42370:1,2012-10-04T07:40:00Z,27.3220,-90.5360,26.6,11111222 
ADCP,ioos:station:wmo:42370:1,2012-10-04T08:00:00Z,27.3220,-90.5360,26.6,11111222 
ADCP,ioos:station:wmo:42370:1,2012-10-04T08:20:00Z,27.3220,-90.5360,26.6,11111222 
ADCP,ioos:station:wmo:42370:1,2012-10-04T08:40:00Z,27.3220,-90.5360,26.5,11111222 
ADCP,ioos:station:wmo:42370:1,2012-10-04T09:00:00Z,27.3220,-90.5360,26.5,11111222 
ADCP,ioos:station:wmo:42370:1,2012-10-04T09:20:00Z,27.3220,-90.5360,26.5,11111222 
ADCP,ioos:station:wmo:42370:1,2012-10-04T09:40:00Z,27.3220,-90.5360,26.4,11111222 
ADCP,ioos:station:wmo:42370:1,2012-10-04T10:00:00Z,27.3220,-90.5360,26.5,11111222 
ADCP,ioos:station:wmo:42370:1,2012-10-04T10:20:00Z,27.3220,-90.5360,26.4,11111222 
ADCP,ioos:station:wmo:42370:1,2012-10-04T10:40:00Z,27.3220,-90.5360,26.4,11111222 
ADCP,ioos:station:wmo:42370:1,2012-10-04T11:00:00Z,27.3220,-90.5360,26.3,11111222 
ADCP,ioos:station:wmo:42370:1,2012-10-04T11:20:00Z,27.3220,-90.5360,26.3,11111222 
ADCP,ioos:station:wmo:42370:1,2012-10-04T11:40:00Z,27.3220,-90.5360,26.4,11111222 
ADCP,ioos:station:wmo:42370:1,2012-10-04T12:00:00Z,27.3220,-90.5360,26.3,11111222 
ADCP,ioos:station:wmo:42370:1,2012-10-04T12:20:00Z,27.3220,-90.5360,26.3,11111222 
ADCP,ioos:station:wmo:42370:1,2012-10-04T12:40:00Z,27.3220,-90.5360,26.3,11111222 
ADCP,ioos:station:wmo:42370:1,2012-10-04T13:00:00Z,27.3220,-90.5360,26.5,11111222 
ADCP,ioos:station:wmo:42370:1,2012-10-04T13:20:00Z,27.3220,-90.5360,26.5,11111222 
ADCP,ioos:station:wmo:42370:1,2012-10-04T13:40:00Z,27.3220,-90.5360,26.5,11111222 
ADCP,ioos:station:wmo:42370:1,2012-10-04T14:00:00Z,27.3220,-90.5360,26.4,11111222 
ADCP,ioos:station:wmo:42370:1,2012-10-04T14:20:00Z,27.3220,-90.5360,26.4,11111222 
ADCP,ioos:station:wmo:42370:1,2012-10-04T14:40:00Z,27.3220,-90.5360,26.5,11111222 
ADCP,ioos:station:wmo:42370:1,2012-10-04T15:00:00Z,27.3220,-90.5360,26.5,11111222 
ADCP,ioos:station:wmo:42370:1,2012-10-04T15:20:00Z,27.3220,-90.5360,26.5,11111222 
ADCP,ioos:station:wmo:42370:1,2012-10-04T15:40:00Z,27.3220,-90.5360,26.4,11111222 
ADCP,ioos:station:wmo:42370:1,2012-10-04T16:00:00Z,27.3220,-90.5360,26.5,11111222 
ADCP,ioos:station:wmo:42370:1,2012-10-04T16:20:00Z,27.3220,-90.5360,26.6,11111222 
ADCP,ioos:station:wmo:42370:1,2012-10-04T16:40:00Z,27.3220,-90.5360,26.6,11111222 
ADCP,ioos:station:wmo:42370:1,2012-10-04T17:00:00Z,27.3220,-90.5360,26.7,11111222 
ADCP,ioos:station:wmo:42370:1,2012-10-04T17:20:00Z,27.3220,-90.5360,26.8,11111222 
ADCP,ioos:station:wmo:42370:1,2012-10-04T17:40:00Z,27.3220,-90.5360,26.8,11111222 
ADCP,ioos:station:wmo:42370:1,2012-10-04T18:00:00Z,27.3220,-90.5360,26.8,11111222 
ADCP,ioos:station:wmo:42370:1,2012-10-04T18:20:00Z,27.3220,-90.5360,26.8,11111222 
ADCP,ioos:station:wmo:42370:1,2012-10-04T18:40:00Z,27.3220,-90.5360,26.8,11111222 
ADCP,ioos:station:wmo:42370:1,2012-10-04T19:00:00Z,27.3220,-90.5360,26.9,11111222 
ADCP,ioos:station:wmo:42370:1,2012-10-04T19:20:00Z,27.3220,-90.5360,26.9,11111222 
ADCP,ioos:station:wmo:42370:1,2012-10-04T19:40:00Z,27.3220,-90.5360,26.8,11111222 
ADCP,ioos:station:wmo:42370:1,2012-10-04T20:00:00Z,27.3220,-90.5360,26.8,11111222 
ADCP,ioos:station:wmo:42370:1,2012-10-04T20:20:00Z,27.3220,-90.5360,26.8,11111222 
ADCP,ioos:station:wmo:42370:1,2012-10-04T20:40:00Z,27.3220,-90.5360,26.8,11111222 
ADCP,ioos:station:wmo:42370:1,2012-10-04T21:00:00Z,27.3220,-90.5360,26.8,11111222 
ADCP,ioos:station:wmo:42370:1,2012-10-04T21:20:00Z,27.3220,-90.5360,26.8,11111222 
ADCP,ioos:station:wmo:42370:1,2012-10-04T21:40:00Z,27.3220,-90.5360,26.8,11111222 
ADCP,ioos:station:wmo:42370:1,2012-10-04T22:00:00Z,27.3220,-90.5360,26.8,11111222 
ADCP,ioos:station:wmo:42370:1,2012-10-04T22:20:00Z,27.3220,-90.5360,26.8,11111222 
ADCP,ioos:station:wmo:42370:1,2012-10-04T22:40:00Z,27.3220,-90.5360,26.6,11111222 
ADCP,ioos:station:wmo:42370:1,2012-10-04T23:00:00Z,27.3220,-90.5360,26.6,11111222 
ADCP,ioos:station:wmo:42370:1,2012-10-04T23:20:00Z,27.3220,-90.5360,26.5,11111222 
ADCP,ioos:station:wmo:42370:1,2012-10-04T23:40:00Z,27.3220,-90.5360,26.5,11111222 